This is the latest recevied weather packets stored in our database for station/object W5LND-10. If no packets are shown the sender has not sent any weather packets the latest 10 day(s).
| Time | Temp. | Humidity | Pressure | Rain* | Wind** | Luminosity | Snow |
|---|---|---|---|---|---|---|---|
| 1787854848 | 36.67° C | 32% | 1011.3 hPa | 0 mm | - | 380 W/m² | - |
| 1787854548 | 36.67° C | 33% | 1011.4 hPa | 0 mm | - | 346 W/m² | - |
| 1787854248 | 36.67° C | 33% | 1011.4 hPa | 0 mm | - | 404 W/m² | - |
| 1787853948 | 36.67° C | 32% | 1011.5 hPa | 0 mm | - | 304 W/m² | - |
| 1787853653 | 37.22° C | 32% | 1011.6 hPa | 0 mm | - | 304 W/m² | - |
| 1787853348 | 37.22° C | 32% | 1011.7 hPa | 0 mm | - | 1139 W/m² | - |
| 1787853048 | 36.67° C | 32% | 1011.9 hPa | 0 mm | - | 1030 W/m² | - |
| 1787852748 | 36.67° C | 33% | 1011.9 hPa | 0 mm | - | 1060 W/m² | - |
| 1787852448 | 36.67° C | 33% | 1012 hPa | 0 mm | - | 1025 W/m² | - |
| 1787852148 | 36.11° C | 33% | 1012 hPa | 0 mm | - | 1013 W/m² | - |
| 1787851848 | 36.11° C | 33% | 1012.2 hPa | 0 mm | - | 722 W/m² | - |
| 1787851548 | 36.11° C | 34% | 1012.3 hPa | 0 mm | - | 946 W/m² | - |
| 1787851248 | 36.11° C | 33% | 1012.2 hPa | 0 mm | - | 932 W/m² | - |
| 1787850948 | 35.56° C | 34% | 1012.3 hPa | 0 mm | - | 930 W/m² | - |
| 1787850648 | 35.56° C | 33% | 1012.3 hPa | 0 mm | - | 928 W/m² | - |
| 1787850348 | 35.56° C | 33% | 1012.3 hPa | 0 mm | - | 923 W/m² | - |
| 1787850048 | 35.56° C | 34% | 1012.4 hPa | 0 mm | - | 909 W/m² | - |
| 1787849748 | 35° C | 34% | 1012.5 hPa | 0 mm | - | 909 W/m² | - |
| 1787849448 | 34.44° C | 35% | 1012.5 hPa | 0 mm | - | 888 W/m² | - |
| 1787849148 | 33.89° C | 36% | 1012.5 hPa | 0 mm | - | 889 W/m² | - |
| 1787848848 | 33.33° C | 36% | 1012.6 hPa | 0 mm | - | 884 W/m² | - |
| 1787848548 | 33.33° C | 36% | 1012.6 hPa | 0 mm | - | 879 W/m² | - |
| 1787848248 | 33.33° C | 36% | 1012.7 hPa | 0 mm | - | 870 W/m² | - |
| 1787847948 | 32.78° C | 37% | 1012.7 hPa | 0 mm | - | 867 W/m² | - |
| 1787847648 | 32.78° C | 37% | 1012.6 hPa | 0 mm | - | 835 W/m² | - |
* Rain latest hour (hover to see other rain measurements)
** Current wind speed in m/s (hover to see current wind gust speed)